Location: Home
(42.5358°N, 72.7383°W)
Time: 00:50:28
(UTC-05:00)

Vanguard 3 - Pass Details

Date: 06 December 2021
Orbit: 508 x 3260 km, 33.3° (Epoch: 21 January)

Event Time Altitude Azimuth Distance (km) Brightness Sun altitude
Rises 05:14:10 0° 260° (W) 7,139 - -20.0°
Reaches altitude 10° 05:18:58 10° 258° (WSW) 6,190 - -19.1°
Exits shadow 05:21:04 15° 257° (WSW) 5,775 10.9 -18.7°
Maximum altitude 05:38:21 62° 185° (S) 3,143 10.1 -15.7°
Drops below altitude 10° 05:52:16 10° 109° (ESE) 4,615 12.5 -13.2°
Sets 05:55:16 0° 106° (ESE) 5,305 13.4 -12.7°
